STARLINK-11678 [DTC]

Last updated on Thu Jul 03 2025 00:02:06 GMT+0000 (Coordinated Universal Time)

1 64326U 25124K 25183.58335648 -.00856401 00000+0 -56821-2 0 9995 2 64326 43.0009 97.0219 0002125 267.9003 194.6738 15.76862346 4453
UTC large
Height (km)
Speed (km/s)
/
Latitude / Longitude
Inclination (degrees)
Orbital Period (minutes)
Azimuth
Elevation
Range (km)
Doppler Factor

Next 0 passes for location: London (51.5072 / 0.1276)

Sorry there are no passes over London.